{"data":{"norad_id":60542,"intl_designator":"2024-149CC","name":"QPS-SAR-8 (AMATERU-IV)","alt_names":[],"object_type":"PAYLOAD","status":"ACTIVE","operator":null,"country":"JPN","launch_date":"2024-08-16","launch_site_code":"AFWTR","launch_vehicle":null,"mission":null,"orbit_class":"UNKNOWN","rcs_meters":null,"size_class":null,"mass_kg":null,"dimensions":null,"purposes":[],"wikipedia_slug":null,"has_3d_model":false,"image_url":null,"decayed_at":null,"tle_current":{"epoch":"2026-09-22T16:36:34.290720Z","epoch_age_seconds":99790,"freshness":"FRESH","line1":"1 60542U 24149CC  26265.69206355  .00003610  00000+0  25915-3 0  9998","line2":"2 60542  97.6611 344.0445 0004328 128.2543 231.9074 15.04938389114939","mean_motion":15.04938389,"eccentricity":0.0004328,"inclination_deg":97.6611,"raan_deg":344.0445,"arg_perigee_deg":128.2543,"mean_anomaly_deg":231.9074,"bstar":0.00025915,"rev_number":11493,"period_min":95.684980230775,"perigee_km":548.69557909251,"apogee_km":554.69404150751,"semimajor_km":6929.8318103,"source":"CELESTRAK","updated_at":"2026-09-23T09:00:20.671714Z"}}}